385P/Hill (2019)

Japanese version
Home page
Updated on December 9, 2019

---------------------------------------------------------------------

* Profile

Designation 385P/2019 P1
Recovery Date August 2, 2019
Magnitude 20.4 mag
Recoverer K. Sarneczky (Piszkesteto Station of Konkoly Observatory)

* Pictures

* Orbital Elements

Epoch 2019 Oct. 4.0 TT = JDT 2458760.5
T 2019 Sept. 14.78291 TT                                Williams
q   2.5676053            (2000.0)            P               Q
n   0.11105360     Peri.   44.32694     +0.74850063     -0.66297017
a   4.2866132      Node   357.08057     +0.49896127     +0.57769852
e   0.4010177      Incl.   16.82647     +0.43678881     +0.47616696
P   8.88
From 303 observations 2010 Oct. 1-2019 Oct. 30, mean residual 0".6.

* Magnitudes Graph

        m1 = 14.0 + 5 log d + 10.0 log r

---------------------------------------------------------------------

The orbital elements are published on M.P.E.C. 2019-V116.
The magnitudes graphs are made with Comet for Windows.

---------------------------------------------------------------------

Copyright(C) Seiichi Yoshida (comet@aerith.net). All rights reserved.